Regional Weather Roundup
Issued by NWS Cleveland, OH

Home | Current Version | Previous Version | Text Only | Print | Product List | Glossary Off
Versions: 1 2 3 4 5 6 7 8 9 10 11 12 13 14 15 16 17 18 19 20 21 22 23 24 25 26 27 28 29 30 31 32 33 34 35 36 37 38 39 40 41 42 43 44 45 46 47 48 49 50

617
ASUS41 KCLE 052210
RWRCLE
OHIO REGIONAL WEATHER ROUNDUP
NATIONAL WEATHER SERVICE CLEVELAND, OH
600 PM EDT THU MAY 05 2016

NOTE: "FAIR" INDICATES FEW OR NO CLOUDS BELOW 12,000 FEET WITH NO
SIGNIFICANT WEATHER AND/OR OBSTRUCTIONS TO VISIBILITY.

OHZ001>008-015>018-024>027-034-035-043-044-052300-
   NORTHWEST OHIO

CITY           SKY/WX    TMP DP  RH WIND       PRES   REMARKS
DEFIANCE       MOSUNNY   67  37  33 N16G30    29.86R
FINDLAY        PTSUNNY   64  38  38 N20       29.83R
TOLEDO EXPRESS CLOUDY    63  39  41 N15       29.85R
TOLEDO EXEC    MOSUNNY   64  39  39 NE10G17   29.85S
LIMA           PTSUNNY   60  43  53 N12       29.84R
$$

OHZ009>014-019>023-028>033-038-089-052300-
   NORTHEAST OHIO

CITY           SKY/WX    TMP DP  RH WIND       PRES   REMARKS
CLE-HOPKINS    PTSUNNY   56  46  69 N12       29.84R
CLE-LAKEFRONT  PTSUNNY   54  48  80 N9        29.81R
CUY CO. ARPT   PTSUNNY   57  46  67 NE13G22   29.81R
LORAIN-ELYRIA  PTSUNNY   57  45  64 NE8       29.82S
ASHTABULA      MOSUNNY   58  44  60 NE8G21    29.80R
AKRON-CANTON   MOSUNNY   61  42  49 N21G31    29.76R
WOOSTER        MOSUNNY   59  43  55 N13G28    29.78S
MANSFIELD      PTSUNNY   57  44  62 N16G28    29.81R
YOUNGSTOWN     PTSUNNY   59  45  59 N20G28    29.76R
$$

OHZ042-051>053-060>062-070>072-077>081-052300-
  SOUTHWEST OHIO

CITY           SKY/WX    TMP DP  RH WIND       PRES   REMARKS
CINC-COVINGTON PTSUNNY   55  47  74 W6        29.86S
CINC-LUNKEN    LGT RAIN  55  48  77 W6        29.86F
HAMILTON       PTSUNNY   58  50  75 W5        29.86S
DAYTON         MOSUNNY   62  41  46 N16G24    29.84F
WRIGHT-PAT AFB MOSUNNY   62  43  49 NE14G20   29.83S
DAYTON GENERAL MOSUNNY   62  47  57 N9G17     29.83S
WILMINGTON     MOSUNNY   58  45  62 N15G23    29.82F
$$

OHZ036-037-039>041-045>050-054>059-063>069-073>076-082>088-052300-
  CENTRAL AND SOUTHEAST OHIO

CITY           SKY/WX    TMP DP  RH WIND       PRES   REMARKS
COLUMBUS       MOSUNNY   59  44  57 N18G24    29.79R
OSU AIRPORT    PTSUNNY   61  44  53 N23G30    29.79F
BOLTON FIELD   PTSUNNY   59  45  58 N17G23    29.81R
RICKENBACK AFB MOSUNNY   60  44  56 N15G26    29.78S
NEWARK         PTSUNNY   62  42  47 N13G21    29.77R
MARION         MOSUNNY   60  44  55 N21       29.82S
LANCASTER      PTSUNNY   59  44  57 N15G25    29.78R
ZANESVILLE     CLOUDY    62  48  60 N14G20    29.74S
NEW PHILLY     PTSUNNY   61  46  57 N15G26    29.75R
$$




USA.gov is the U.S. government's official web portal to all federal, state and local government web resources and services.